Year,Month,Day,Hour,Minute,Value (Times are PST for windgust in km/hr)
2006,12,15,00,00,4.80
2006,12,15,00,01,4.80
2006,12,15,00,02,6.40
2006,12,15,00,03,6.40
2006,12,15,00,04,6.40
2006,12,15,00,05,6.40
2006,12,15,00,06,4.80
2006,12,15,00,07,8.10
2006,12,15,00,08,8.10
2006,12,15,00,09,4.80
2006,12,15,00,10,6.40
2006,12,15,00,11,8.10
2006,12,15,00,12,8.10
2006,12,15,00,13,11.30
2006,12,15,00,14,6.40
2006,12,15,00,15,9.60
2006,12,15,00,16,32.20
2006,12,15,00,17,24.20
2006,12,15,00,18,22.50
2006,12,15,00,19,11.30
2006,12,15,00,20,19.30
2006,12,15,00,21,22.50
2006,12,15,00,22,19.30
2006,12,15,00,23,14.50
2006,12,15,00,24,25.70
2006,12,15,00,25,22.50
2006,12,15,00,26,16.10
2006,12,15,00,27,14.50
2006,12,15,00,28,19.30
2006,12,15,00,29,24.20
2006,12,15,00,30,8.10
2006,12,15,00,31,16.10
2006,12,15,00,32,19.30
2006,12,15,00,33,17.70
2006,12,15,00,34,19.30
2006,12,15,00,35,16.10
2006,12,15,00,36,24.20
2006,12,15,00,37,30.60
2006,12,15,00,38,33.80
2006,12,15,00,39,25.70
2006,12,15,00,40,20.90
2006,12,15,00,41,30.60
2006,12,15,00,42,29.00
2006,12,15,00,43,24.20
2006,12,15,00,44,19.30
2006,12,15,00,45,25.70
2006,12,15,00,46,22.50
2006,12,15,00,47,25.70
2006,12,15,00,48,25.70
2006,12,15,00,49,32.20
2006,12,15,00,50,37.00
2006,12,15,00,51,41.80
2006,12,15,00,52,25.70
2006,12,15,00,53,41.80
2006,12,15,00,54,19.30
2006,12,15,00,55,37.00
2006,12,15,00,56,27.40
2006,12,15,00,57,32.20
2006,12,15,00,58,32.20
2006,12,15,00,59,35.40
2006,12,15,01,00,33.80
2006,12,15,01,01,25.70
2006,12,15,01,02,32.20
2006,12,15,01,03,33.80
2006,12,15,01,04,27.40
2006,12,15,01,05,37.00
2006,12,15,01,06,25.70
2006,12,15,01,07,22.50
2006,12,15,01,08,30.60
2006,12,15,01,09,37.00
2006,12,15,01,10,25.70
2006,12,15,01,11,51.50
2006,12,15,01,12,29.00
2006,12,15,01,13,19.30
2006,12,15,01,14,33.80
2006,12,15,01,15,25.70
2006,12,15,01,16,37.00
2006,12,15,01,17,27.40
2006,12,15,01,18,35.40
2006,12,15,01,19,27.40
2006,12,15,01,20,43.50
2006,12,15,01,21,35.40
2006,12,15,01,22,32.20
2006,12,15,01,23,25.70
2006,12,15,01,24,27.40
2006,12,15,01,25,45.10
2006,12,15,01,26,45.10
2006,12,15,01,27,35.40
2006,12,15,01,28,30.60
2006,12,15,01,29,46.70
2006,12,15,01,30,25.70
2006,12,15,01,31,38.60
2006,12,15,01,32,46.70
2006,12,15,01,33,37.00
2006,12,15,01,34,17.70
2006,12,15,01,35,33.80
2006,12,15,01,36,35.40
2006,12,15,01,37,46.70
2006,12,15,01,38,45.10
2006,12,15,01,39,33.80
2006,12,15,01,40,40.20
2006,12,15,01,41,54.70
2006,12,15,01,42,37.00
2006,12,15,01,43,70.80
2006,12,15,01,44,40.20
2006,12,15,01,45,54.70
2006,12,15,01,46,49.90
2006,12,15,01,47,40.20
2006,12,15,01,48,45.10
2006,12,15,01,49,38.60
2006,12,15,01,50,35.40
2006,12,15,01,51,38.60
2006,12,15,01,55,32.20
2006,12,15,01,56,41.80
2006,12,15,01,57,40.20
2006,12,15,01,58,24.20
2006,12,15,02,02,20.90
2006,12,15,02,03,37.00
2006,12,15,02,04,38.60
2006,12,15,02,05,37.00
2006,12,15,02,06,37.00
2006,12,15,02,07,30.60
2006,12,15,02,08,48.30
2006,12,15,02,09,53.10
2006,12,15,02,10,49.90
2006,12,15,02,11,35.40
2006,12,15,02,12,30.60
2006,12,15,02,13,45.10
2006,12,15,02,14,29.00
2006,12,15,02,15,48.30
2006,12,15,02,16,30.60
2006,12,15,14,55,8.10
2006,12,15,14,56,6.40
2006,12,15,14,57,6.40
2006,12,15,14,58,3.20
2006,12,15,14,59,1.60
2006,12,15,15,00,3.20
2006,12,15,15,01,8.10
2006,12,15,15,02,3.20
2006,12,15,15,03,1.60
2006,12,15,15,04,3.20
2006,12,15,15,05,0.00
2006,12,15,15,06,3.20
2006,12,15,15,07,3.20
2006,12,15,15,08,1.60
2006,12,15,15,09,3.20
2006,12,15,15,10,1.60
2006,12,15,15,11,1.60
2006,12,15,15,12,1.60
2006,12,15,15,13,1.60
2006,12,15,15,14,3.20
2006,12,15,15,15,4.80
2006,12,15,15,16,3.20
2006,12,15,15,17,3.20
2006,12,15,15,18,3.20
2006,12,15,15,19,6.40
2006,12,15,15,20,4.80
2006,12,15,15,21,1.60
2006,12,15,15,22,3.20
2006,12,15,15,23,4.80
2006,12,15,15,24,3.20
2006,12,15,15,25,4.80
2006,12,15,15,26,3.20
2006,12,15,15,27,4.80
2006,12,15,15,28,4.80
2006,12,15,15,29,4.80
2006,12,15,15,30,4.80
2006,12,15,15,31,4.80
2006,12,15,15,32,3.20
2006,12,15,15,33,0.00
2006,12,15,15,34,1.60
2006,12,15,15,35,0.00
2006,12,15,15,36,0.00
2006,12,15,15,37,0.00
2006,12,15,15,38,0.00
2006,12,15,15,39,0.00
2006,12,15,15,40,1.60
2006,12,15,15,41,1.60
2006,12,15,15,42,1.60
2006,12,15,15,43,1.60
2006,12,15,15,44,0.00
2006,12,15,15,45,0.00
2006,12,15,15,46,0.00
2006,12,15,15,47,0.00
2006,12,15,15,48,0.00
2006,12,15,15,49,0.00
2006,12,15,15,50,0.00
2006,12,15,15,51,0.00
2006,12,15,15,52,0.00
2006,12,15,15,53,0.00
2006,12,15,15,54,0.00
2006,12,15,15,55,0.00
2006,12,15,15,56,0.00
2006,12,15,15,57,0.00
2006,12,15,15,58,0.00
2006,12,15,15,59,0.00
2006,12,15,16,00,3.20
2006,12,15,16,01,1.60
2006,12,15,16,02,1.60
2006,12,15,16,03,0.00
2006,12,15,16,04,0.00
2006,12,15,16,05,0.00
2006,12,15,16,06,1.60
2006,12,15,16,07,1.60
2006,12,15,16,08,3.20
2006,12,15,16,09,3.20
2006,12,15,16,10,3.20
2006,12,15,16,11,4.80
2006,12,15,16,12,3.20
2006,12,15,16,13,1.60
2006,12,15,16,14,1.60
2006,12,15,16,15,3.20
2006,12,15,16,16,3.20
2006,12,15,16,17,6.40
2006,12,15,16,18,4.80
2006,12,15,16,19,4.80
2006,12,15,16,20,3.20
2006,12,15,16,21,4.80
2006,12,15,16,22,6.40
2006,12,15,16,23,9.60
2006,12,15,16,24,6.40
2006,12,15,16,25,11.30
2006,12,15,16,26,4.80
2006,12,15,16,27,3.20
2006,12,15,16,28,8.10
2006,12,15,16,29,9.60
2006,12,15,16,30,6.40
2006,12,15,16,31,12.90
2006,12,15,16,32,6.40
2006,12,15,16,33,6.40
2006,12,15,16,34,4.80
2006,12,15,16,35,3.20
2006,12,15,16,36,4.80
2006,12,15,16,37,4.80
2006,12,15,16,38,4.80
2006,12,15,16,39,3.20
2006,12,15,16,40,0.00
2006,12,15,16,41,3.20
2006,12,15,16,42,1.60
2006,12,15,16,43,1.60
2006,12,15,16,44,1.60
2006,12,15,16,45,1.60
2006,12,15,16,46,0.00
2006,12,15,16,47,1.60
2006,12,15,16,48,0.00
2006,12,15,16,49,0.00
2006,12,15,16,50,0.00
2006,12,15,16,51,0.00
2006,12,15,16,52,3.20
2006,12,15,16,53,1.60
2006,12,15,16,54,1.60
2006,12,15,16,55,0.00
2006,12,15,16,56,0.00
2006,12,15,16,57,0.00
2006,12,15,16,58,0.00
2006,12,15,16,59,0.00
2006,12,15,17,00,0.00
2006,12,15,17,01,0.00
2006,12,15,17,02,0.00
2006,12,15,17,03,1.60
2006,12,15,17,04,3.20
2006,12,15,17,05,3.20
2006,12,15,17,06,3.20
2006,12,15,17,07,1.60
2006,12,15,17,08,1.60
2006,12,15,17,09,1.60
2006,12,15,17,10,1.60
2006,12,15,17,11,0.00
2006,12,15,17,12,0.00
2006,12,15,17,13,0.00
2006,12,15,17,14,1.60
2006,12,15,17,15,1.60
2006,12,15,17,16,0.00
2006,12,15,17,17,0.00
2006,12,15,17,18,0.00
2006,12,15,17,19,0.00
2006,12,15,17,20,0.00
2006,12,15,17,21,0.00
2006,12,15,17,22,0.00
2006,12,15,17,23,0.00
2006,12,15,17,24,0.00
2006,12,15,17,25,0.00
2006,12,15,17,26,0.00
2006,12,15,17,27,0.00
2006,12,15,17,28,0.00
2006,12,15,17,29,1.60
2006,12,15,17,30,1.60
2006,12,15,17,31,0.00
2006,12,15,17,32,0.00
2006,12,15,17,33,3.20
2006,12,15,17,34,0.00
2006,12,15,17,35,3.20
2006,12,15,17,36,3.20
2006,12,15,17,37,1.60
2006,12,15,17,38,3.20
2006,12,15,17,39,1.60
2006,12,15,17,40,0.00
2006,12,15,17,41,0.00
2006,12,15,17,42,0.00
2006,12,15,17,43,0.00
2006,12,15,17,44,0.00
2006,12,15,17,45,0.00
2006,12,15,17,46,0.00
2006,12,15,17,47,0.00
2006,12,15,17,48,0.00
2006,12,15,17,49,0.00
2006,12,15,17,50,0.00
2006,12,15,17,51,0.00
2006,12,15,17,52,0.00
2006,12,15,17,53,0.00
2006,12,15,17,54,1.60
2006,12,15,17,55,3.20
2006,12,15,17,56,0.00
2006,12,15,17,57,0.00
2006,12,15,17,58,0.00
2006,12,15,17,59,1.60
2006,12,15,18,00,3.20
2006,12,15,18,01,4.80
2006,12,15,18,02,4.80
2006,12,15,18,03,3.20
2006,12,15,18,04,3.20
2006,12,15,18,05,1.60
2006,12,15,18,06,1.60
2006,12,15,18,07,3.20
2006,12,15,18,08,3.20
2006,12,15,18,09,3.20
2006,12,15,18,10,3.20
2006,12,15,18,11,1.60
2006,12,15,18,12,1.60
2006,12,15,18,13,1.60
2006,12,15,18,14,1.60
2006,12,15,18,15,0.00
2006,12,15,18,16,0.00
2006,12,15,18,17,0.00
2006,12,15,18,18,0.00
2006,12,15,18,19,0.00
2006,12,15,18,20,0.00
2006,12,15,18,21,0.00
2006,12,15,18,22,1.60
2006,12,15,18,23,1.60
2006,12,15,18,24,0.00
2006,12,15,18,25,0.00
2006,12,15,18,26,0.00
2006,12,15,18,27,0.00
2006,12,15,18,28,0.00
2006,12,15,18,29,0.00
2006,12,15,18,30,0.00
2006,12,15,18,31,0.00
2006,12,15,18,32,0.00
2006,12,15,18,33,0.00
2006,12,15,18,34,0.00
2006,12,15,18,35,0.00
2006,12,15,18,36,0.00
2006,12,15,18,37,0.00
2006,12,15,18,38,0.00
2006,12,15,18,39,0.00
2006,12,15,18,40,0.00
2006,12,15,18,41,0.00
2006,12,15,18,42,0.00
2006,12,15,18,43,0.00
2006,12,15,18,44,0.00
2006,12,15,18,45,0.00
2006,12,15,18,46,0.00
2006,12,15,18,47,0.00
2006,12,15,18,48,0.00
2006,12,15,18,49,1.60
2006,12,15,18,50,1.60
2006,12,15,18,51,1.60
2006,12,15,18,52,0.00
2006,12,15,18,53,0.00
2006,12,15,18,54,0.00
2006,12,15,18,55,0.00
2006,12,15,18,56,3.20
2006,12,15,18,57,1.60
2006,12,15,18,58,0.00
2006,12,15,18,59,0.00
2006,12,15,19,00,4.80
2006,12,15,19,01,3.20
2006,12,15,19,02,0.00
2006,12,15,19,03,0.00
2006,12,15,19,04,0.00
2006,12,15,19,05,0.00
2006,12,15,19,06,0.00
2006,12,15,19,07,1.60
2006,12,15,19,08,3.20
2006,12,15,19,09,3.20
2006,12,15,19,10,4.80
2006,12,15,19,11,1.60
2006,12,15,19,12,1.60
2006,12,15,19,13,1.60
2006,12,15,19,14,0.00
2006,12,15,19,15,0.00
2006,12,15,19,16,0.00
2006,12,15,19,17,0.00
2006,12,15,19,18,0.00
2006,12,15,19,19,0.00
2006,12,15,19,20,1.60
2006,12,15,19,21,1.60
2006,12,15,19,22,1.60
2006,12,15,19,23,1.60
2006,12,15,19,24,1.60
2006,12,15,19,25,6.40
2006,12,15,19,26,8.10
2006,12,15,19,27,0.00
2006,12,15,19,28,0.00
2006,12,15,19,29,0.00
2006,12,15,19,30,1.60
2006,12,15,19,31,3.20
2006,12,15,19,32,4.80
2006,12,15,19,33,3.20
2006,12,15,19,34,0.00
2006,12,15,19,35,0.00
2006,12,15,19,36,1.60
2006,12,15,19,37,1.60
2006,12,15,19,38,1.60
2006,12,15,19,39,1.60
2006,12,15,19,40,3.20
2006,12,15,19,41,3.20
2006,12,15,19,42,3.20
2006,12,15,19,43,6.40
2006,12,15,19,44,6.40
2006,12,15,19,45,4.80
2006,12,15,19,46,4.80
2006,12,15,19,47,1.60
2006,12,15,19,48,4.80
2006,12,15,19,49,3.20
2006,12,15,19,50,1.60
2006,12,15,19,51,6.40
2006,12,15,19,52,3.20
2006,12,15,19,53,1.60
2006,12,15,19,54,1.60
2006,12,15,19,55,1.60
2006,12,15,19,56,0.00
2006,12,15,19,57,1.60
2006,12,15,19,58,0.00
2006,12,15,19,59,0.00
2006,12,15,20,00,0.00
2006,12,15,20,01,0.00
2006,12,15,20,02,0.00
2006,12,15,20,03,1.60
2006,12,15,20,04,1.60
2006,12,15,20,05,1.60
2006,12,15,20,06,0.00
2006,12,15,20,07,1.60
2006,12,15,20,08,0.00
2006,12,15,20,09,0.00
2006,12,15,20,10,0.00
2006,12,15,20,11,0.00
2006,12,15,20,12,0.00
2006,12,15,20,13,0.00
2006,12,15,20,14,0.00
2006,12,15,20,15,0.00
2006,12,15,20,16,0.00
2006,12,15,20,17,0.00
2006,12,15,20,18,0.00
2006,12,15,20,19,1.60
2006,12,15,20,20,0.00
2006,12,15,20,21,0.00
2006,12,15,20,22,0.00
2006,12,15,20,23,0.00
2006,12,15,20,24,0.00
2006,12,15,20,25,0.00
2006,12,15,20,26,0.00
2006,12,15,20,27,0.00
2006,12,15,20,28,0.00
2006,12,15,20,29,0.00
2006,12,15,20,30,0.00
2006,12,15,20,31,0.00
2006,12,15,20,32,0.00
2006,12,15,20,33,0.00
2006,12,15,20,34,0.00
2006,12,15,20,35,0.00
2006,12,15,20,36,0.00
2006,12,15,20,37,0.00
2006,12,15,20,38,0.00
2006,12,15,20,39,0.00
2006,12,15,20,40,0.00
2006,12,15,20,41,0.00
2006,12,15,20,42,0.00
2006,12,15,20,43,0.00
2006,12,15,20,44,0.00
2006,12,15,20,45,0.00
2006,12,15,20,46,0.00
2006,12,15,20,47,0.00
2006,12,15,20,48,0.00
2006,12,15,20,49,0.00
2006,12,15,20,50,0.00
2006,12,15,20,51,0.00
2006,12,15,20,52,0.00
2006,12,15,20,53,0.00
2006,12,15,20,54,0.00
2006,12,15,20,55,0.00
2006,12,15,20,56,0.00
2006,12,15,20,57,0.00
2006,12,15,20,58,0.00
2006,12,15,20,59,0.00
2006,12,15,21,00,1.60
2006,12,15,21,01,1.60
2006,12,15,21,02,1.60
2006,12,15,21,03,0.00
2006,12,15,21,04,0.00
2006,12,15,21,05,0.00
2006,12,15,21,06,0.00
2006,12,15,21,07,0.00
2006,12,15,21,08,0.00
2006,12,15,21,09,0.00
2006,12,15,21,10,0.00
2006,12,15,21,11,0.00
2006,12,15,21,12,0.00
2006,12,15,21,13,0.00
2006,12,15,21,14,0.00
2006,12,15,21,15,0.00
2006,12,15,21,16,0.00
2006,12,15,21,17,0.00
2006,12,15,21,18,0.00
2006,12,15,21,19,0.00
2006,12,15,21,20,0.00
2006,12,15,21,21,0.00
2006,12,15,21,22,0.00
2006,12,15,21,23,0.00
2006,12,15,21,24,0.00
2006,12,15,21,25,0.00
2006,12,15,21,26,0.00
2006,12,15,21,27,0.00
2006,12,15,21,28,0.00
2006,12,15,21,29,0.00
2006,12,15,21,30,0.00
2006,12,15,21,31,0.00
2006,12,15,21,32,0.00
2006,12,15,21,33,0.00
2006,12,15,21,34,0.00
2006,12,15,21,35,0.00
2006,12,15,21,36,0.00
2006,12,15,21,37,0.00
2006,12,15,21,38,0.00
2006,12,15,21,39,0.00
2006,12,15,21,40,0.00
2006,12,15,21,41,0.00
2006,12,15,21,42,0.00
2006,12,15,21,43,0.00
2006,12,15,21,44,0.00
2006,12,15,21,45,0.00
2006,12,15,21,46,0.00
2006,12,15,21,47,0.00
2006,12,15,21,48,0.00
2006,12,15,21,49,0.00
2006,12,15,21,50,0.00
2006,12,15,21,51,0.00
2006,12,15,21,52,0.00
2006,12,15,21,53,0.00
2006,12,15,21,54,0.00
2006,12,15,21,55,0.00
2006,12,15,21,56,0.00
2006,12,15,21,57,0.00
2006,12,15,21,58,0.00
2006,12,15,21,59,0.00
2006,12,15,22,00,0.00
2006,12,15,22,01,0.00
2006,12,15,22,02,0.00
2006,12,15,22,03,0.00
2006,12,15,22,04,0.00
2006,12,15,22,05,0.00
2006,12,15,22,06,0.00
2006,12,15,22,07,0.00
2006,12,15,22,08,0.00
2006,12,15,22,09,0.00
2006,12,15,22,10,0.00
2006,12,15,22,11,0.00
2006,12,15,22,12,0.00
2006,12,15,22,13,0.00
2006,12,15,22,14,0.00
2006,12,15,22,15,0.00
2006,12,15,22,16,0.00
2006,12,15,22,17,3.20
2006,12,15,22,18,3.20
2006,12,15,22,19,1.60
2006,12,15,22,20,3.20
2006,12,15,22,21,3.20
2006,12,15,22,22,3.20
2006,12,15,22,23,1.60
2006,12,15,22,24,1.60
2006,12,15,22,25,0.00
2006,12,15,22,26,0.00
2006,12,15,22,27,0.00
2006,12,15,22,28,0.00
2006,12,15,22,29,0.00
2006,12,15,22,30,1.60
2006,12,15,22,31,1.60
2006,12,15,22,32,1.60
2006,12,15,22,33,1.60
2006,12,15,22,34,1.60
2006,12,15,22,35,1.60
2006,12,15,22,36,1.60
2006,12,15,22,37,3.20
2006,12,15,22,38,1.60
2006,12,15,22,39,3.20
2006,12,15,22,40,3.20
2006,12,15,22,41,1.60
2006,12,15,22,42,0.00
2006,12,15,22,43,1.60
2006,12,15,22,44,1.60
2006,12,15,22,45,0.00
2006,12,15,22,46,1.60
2006,12,15,22,47,0.00
2006,12,15,22,48,1.60
2006,12,15,22,49,1.60
2006,12,15,22,50,0.00
2006,12,15,22,51,3.20
2006,12,15,22,52,3.20
2006,12,15,22,53,1.60
2006,12,15,22,54,0.00
2006,12,15,22,55,0.00
2006,12,15,22,56,0.00
2006,12,15,22,57,0.00
2006,12,15,22,58,0.00
2006,12,15,22,59,0.00
2006,12,15,23,00,1.60
2006,12,15,23,01,1.60
2006,12,15,23,02,0.00
2006,12,15,23,03,0.00
2006,12,15,23,04,0.00
2006,12,15,23,05,0.00
2006,12,15,23,06,1.60
2006,12,15,23,07,0.00
2006,12,15,23,08,0.00
2006,12,15,23,09,0.00
2006,12,15,23,10,0.00
2006,12,15,23,11,0.00
2006,12,15,23,12,0.00
2006,12,15,23,13,0.00
2006,12,15,23,14,0.00
2006,12,15,23,15,0.00
2006,12,15,23,16,0.00
2006,12,15,23,17,0.00
2006,12,15,23,18,0.00
2006,12,15,23,19,0.00
2006,12,15,23,20,0.00
2006,12,15,23,21,0.00
2006,12,15,23,22,0.00
2006,12,15,23,23,0.00
2006,12,15,23,24,0.00
2006,12,15,23,25,0.00
2006,12,15,23,26,0.00
2006,12,15,23,27,0.00
2006,12,15,23,28,0.00
2006,12,15,23,29,0.00
2006,12,15,23,30,0.00
2006,12,15,23,31,3.20
2006,12,15,23,32,1.60
2006,12,15,23,33,1.60
2006,12,15,23,34,0.00
2006,12,15,23,35,0.00
2006,12,15,23,36,0.00
2006,12,15,23,37,0.00
2006,12,15,23,38,0.00
2006,12,15,23,39,0.00
2006,12,15,23,40,0.00
2006,12,15,23,41,0.00
2006,12,15,23,42,0.00
2006,12,15,23,43,0.00
2006,12,15,23,44,0.00
2006,12,15,23,45,1.60
2006,12,15,23,46,1.60
2006,12,15,23,47,0.00
2006,12,15,23,48,1.60
2006,12,15,23,49,1.60
2006,12,15,23,50,1.60
2006,12,15,23,51,0.00
2006,12,15,23,52,0.00
2006,12,15,23,53,0.00
2006,12,15,23,54,0.00
2006,12,15,23,55,0.00
2006,12,15,23,56,1.60
2006,12,15,23,57,1.60
2006,12,15,23,58,1.60
2006,12,15,23,59,1.60
